Location: Allaines
(49.9632°N, 2.9458°E)
Time: 10:37:56
(UTC+00:00)

CZ-4C R/B - Pass Details

Date: 09 April 2020
Orbit: 637 x 1364 km, 63.4° (Epoch: 25 May)

Event Time Altitude Azimuth Distance (km) Brightness Sun altitude
Rises 22:37:11 0° 315° (NW) 3,828 6.6 -29.9°
Reaches altitude 10° 22:39:44 10° 310° (NW) 2,970 5.7 -30.1°
Maximum altitude 22:46:39 51° 238° (WSW) 1,524 3.3 -30.4°
Enters shadow 22:46:58 50° 230° (SW) 1,534 3.3 -30.4°
